Location: Eferding
(48.3167°N, 14.0167°E)
Time: 02:45:37
(UTC+00:00)

Cosmos 2297 Rocket - Pass Details

Date: 12 November 2019
Orbit: 839 x 843 km, 71.0° (Epoch: 07 December)

Event Time Altitude Azimuth Distance (km) Brightness Sun altitude
Rises 17:39:39 0° 329° (NNW) 3,408 5.7 -21.7°
Reaches altitude 10° 17:42:08 10° 326° (NW) 2,470 5.0 -22.1°
Maximum altitude 17:47:40 58° 249° (WSW) 981 2.8 -23.0°
Drops below altitude 10° 17:53:11 10° 171° (S) 2,455 4.5 -23.9°
Sets 17:55:39 0° 167° (SSE) 3,386 5.2 -24.3°
